Regional Weather Roundup
Issued by NWS Upton, NY

Current Version | Previous Version | Graphics & Text | Print | Product List | Glossary Off
Versions: 1 2 3 4 5 6 7 8 9 10 11 12 13 14 15 16 17 18 19 20 21 22 23 24 25 26 27 28 29 30 31 32 33 34 35 36 37 38 39 40 41 42 43 44 45 46 47 48 49 50

000
ASUS41 KOKX 200405
RWROKX

REGIONAL WEATHER ROUNDUP
NATIONAL WEATHER SERVICE NEW YORK NY
1200 AM EDT MON OCT 20 2014

NOTE: "FAIR" INDICATES FEW OR NO CLOUDS BELOW 12,000 FEET WITH NO
SIGNIFICANT WEATHER AND/OR OBSTRUCTIONS TO VISIBILITY.

NYZ071-072-176-178-NJZ106-104-200500-
NEW YORK CITY METRO AREA


CITY           SKY/WX    TMP DP  RH WIND       PRES   REMARKS
CENTRAL PARK   FAIR      44  26  49 VRB6      30.09S
LAGUARDIA APRT NOT AVBL
KENNEDY INTL   NOT AVBL
NEWARK/LIBERTY NOT AVBL
BRNX BOT. GARD   N/A    N/A N/A N/A NW2       30.06F
TETERBORO      NOT AVBL
$$

NYZ177-179-078>081-200500-
LONG ISLAND NEW YORK

CITY           SKY/WX    TMP DP  RH WIND       PRES   REMARKS
FARMINGDALE    NOT AVBL
ISLIP          NOT AVBL
SHIRLEY        NOT AVBL
WESTHAMPTON    NOT AVBL
MONTAUK POINT    N/A     46  30  53 NW15G25   30.02R
$$

NYZ052-065-067-200500-
HUDSON VALLEY

CITY           SKY/WX    TMP DP  RH WIND       PRES   REMARKS
WHITE PLAINS   NOT AVBL
NEWBURGH       NOT AVBL
MONTGOMERY     NOT AVBL
POUGHKEEPSIE   NOT AVBL
ALBANY         NOT AVBL
$$

NJZ001-105-106-008-010-013-015-019>022-104-200500-
NEW JERSEY

CITY           SKY/WX    TMP DP  RH WIND       PRES   REMARKS
NEWARK/LIBERTY NOT AVBL
TETERBORO      NOT AVBL
CALDWELL       NOT AVBL
MORRISTOWN     NOT AVBL
SOMERVILLE     NOT AVBL
SUSSEX         NOT AVBL
ANDOVER          N/A     37  30  75 CALM      30.07F
TRENTON        NOT AVBL
MILLVILLE      NOT AVBL
ATLANTIC CITY  FAIR      38  33  82 CALM      30.09S
WRIGHTSTOWN    NOT AVBL
TOMS RIVER     NOT AVBL
BELMAR         NOT AVBL
$$

PAZ047>061-062-071-200500-
EASTERN PENNSYLVANIA

CITY           SKY/WX    TMP DP  RH WIND       PRES   REMARKS
PHILADELPHIA   NOT AVBL
ALLENTOWN      NOT AVBL
SCRANTON       NOT AVBL
$$

CTZ002-004>006-009-010-012-RIZ004-006-007-MAZ004-011-015-200500-
SOUTHERN NEW ENGLAND
 IN CT

CITY           SKY/WX    TMP DP  RH WIND       PRES   REMARKS
BRADLEY INTL   NOT AVBL
HARTFORD       NOT AVBL
DANBURY        NOT AVBL
WTRBRY/OXFORD  NOT AVBL
BRIDGEPORT     NOT AVBL
MERIDEN        NOT AVBL
NEW HAVEN      NOT AVBL
CHESTER        NOT AVBL
GROTON         NOT AVBL
WILLIMANTIC    NOT AVBL

 IN RI

CITY           SKY/WX    TMP DP  RH WIND       PRES   REMARKS
PROVIDENCE     NOT AVBL
BLOCK ISLAND   NOT AVBL
WESTERLY       NOT AVBL

 IN MA

CITY           SKY/WX    TMP DP  RH WIND       PRES   REMARKS
BOSTON         NOT AVBL
WORCESTER      NOT AVBL
WESTFIELD      NOT AVBL
PROVINCETOWN   NOT AVBL
NANTUCKET      NOT AVBL
$$

ANZ330-335-338-340-345-350-353-355-200500-
COASTAL MARINE OBSERVATIONS


STATION/POSITION TIME  SKY/WX   TEMP    WIND        PRES    VSBY  WAVE
                                AIR SEA DIR/SP/G                  HT/PER
                 (UTC)          (F)     (DEG/KT/KT) (MB)    (MI)  (FT/S)
NY HARB ENTRANCE NOT AVBL
4S FIRE IS       0300               64                N/A           3/11
20S FIRE ISLAND  0300            49 64  320/ 17/ 23 1017.2          4/ 5
23SW MTP         0300                                 N/A           5/ 5
HUDSON CANYON    0300            52 66  320/ 19/ 25 1016.3          7/ 7
EXECUTION ROCKS  0300            47 64  320/ 10/ 16   N/A
WESTERN LI SOUND 0300            46     330/ 10/ 14   N/A           1/ 2
CENTRAL LI SOUND 0300            46 64  310/ 19/ 27   N/A           3/ 4
EASTERN LI SOUND 0300            47 64  310/ 17/ 23   N/A
ROBBINS REEF     0300            45     330/ 12/ 16 1017.1
$$


>>>>>>>>>>>>>>>>>>>>>>>>>>>> KEY <<<<<<<<<<<<<<<<<<<<<<<<<<<
>                                                          <
>     SKY/WX - SKY CONDITION/PRESENT WEATHER               <
>     TMP    - TEMPERATURE IN FAHRENHEIT                   <
>     DP     - DEWPOINT IN FAHRENHEIT                      <
>     RH     - RELATIVE HUMIDITY IN PERCENT                <
>     WIND   - DIRECTION AND SPEED IN MPH                  <
>     PRES   - MEAN SEA LEVEL PRESSURE IN INCHES OF HG     <
>     WCI    - WIND CHILL INDEX                            <
>     VSB    - VISIBILITY IN MILES                         <
>     HX     - HEAT INDEX                                  <
>     TC     - TEMPERATURE IN CELSIUS                      <
>     VRB    - VARIABLE WIND DIRECTION                     <
>                                                          <
>>>>>>>>>>>>>>>>>>>>>>>>>>>> KEY <<<<<<<<<<<<<<<<<<<<<<<<<<<




USA.gov is the U.S. government's official web portal to all federal, state and local government web resources and services.